• în România
  • Lista ţărilor
  • Pe 7 zile
  • Temperatura apei
  • Hartă satelitară
  • Meteo pe hartă
  • Widget-uri
  • user-avatar
    Intrare

    Meteo pe oră la Umag

    Astăzi, 20 Octombrie, Vineri

    Timp Temperatura Precipitaţii Vânt Presiune Umiditate
    00:00 +14°C° 0 mm 1 m/s 763 mmHg 80%
    01:00 +14°C° 0 mm 1 m/s 763 mmHg 76%
    02:00 +14°C° 0 mm 1 m/s 763 mmHg 77%
    03:00 +14°C° 0 mm 1 m/s 763 mmHg 78%
    04:00 +14°C° 0 mm 1 m/s 763 mmHg 79%
    05:00 +13°C° 0 mm 1 m/s 763 mmHg 79%
    06:00 +13°C° 0 mm 1 m/s 764 mmHg 80%
    07:00 +13°C° 0 mm 1 m/s 764 mmHg 81%
    08:00 +15°C° 0 mm 1 m/s 764 mmHg 75%
    09:00 +18°C° 0 mm 1 m/s 764 mmHg 69%
    10:00 +20°C° 0 mm 1 m/s 764 mmHg 63%
    11:00 +21°C° 0 mm 1 m/s 764 mmHg 62%
    12:00 +21°C° 0 mm 1 m/s 764 mmHg 61%
    13:00 +21°C° 0 mm 1 m/s 764 mmHg 63%
    14:00 +20°C° 0 mm 1 m/s 764 mmHg 66%
    15:00 +20°C° 0 mm 1 m/s 764 mmHg 69%
    16:00 +20°C° 0 mm 1 m/s 764 mmHg 73%
    17:00 +18°C° 0 mm 1 m/s 764 mmHg 78%
    18:00 +16°C° 0 mm 1 m/s 764 mmHg 84%
    19:00 +14°C° 0 mm 1 m/s 765 mmHg 90%
    20:00 +14°C° 0 mm 1 m/s 765 mmHg 90%
    21:00 +14°C° 0 mm 1 m/s 765 mmHg 90%
    22:00 +14°C° 0 mm 1 m/s 765 mmHg 91%
    23:00 +13°C° 0 mm 1 m/s 765 mmHg 91%

    Mâine, 21 Octombrie, Sâmbătă

    Timp Temperatura Precipitaţii Vânt Presiune Umiditate
    00:00 +13°C° 0 mm 1 m/s 765 mmHg 90%
    01:00 +13°C° 0 mm 1 m/s 765 mmHg 90%
    02:00 +13°C° 0 mm 1 m/s 765 mmHg 90%
    03:00 +13°C° 0 mm 1 m/s 765 mmHg 90%
    04:00 +13°C° 0 mm 1 m/s 765 mmHg 90%
    05:00 +13°C° 0 mm 1 m/s 765 mmHg 90%
    06:00 +13°C° 0 mm 2 m/s 765 mmHg 90%
    07:00 +13°C° 0 mm 2 m/s 765 mmHg 89%
    08:00 +15°C° 0 mm 1 m/s 765 mmHg 82%
    09:00 +18°C° 0 mm 1 m/s 765 mmHg 74%
    10:00 +20°C° 0 mm 1 m/s 765 mmHg 66%
    11:00 +20°C° 0 mm 1 m/s 764 mmHg 65%
    12:00 +21°C° 0 mm 1 m/s 764 mmHg 64%
    13:00 +21°C° 0 mm 1 m/s 764 mmHg 63%
    14:00 +21°C° 0 mm 1 m/s 764 mmHg 68%
    15:00 +20°C° 0 mm 1 m/s 763 mmHg 72%
    16:00 +20°C° 0 mm 1 m/s 763 mmHg 76%
    17:00 +19°C° 0 mm 1 m/s 763 mmHg 81%
    18:00 +16°C° 0 mm 1 m/s 764 mmHg 86%
    19:00 +15°C° 0 mm 1 m/s 764 mmHg 92%
    20:00 +15°C° 0 mm 1 m/s 764 mmHg 92%
    21:00 +15°C° 0 mm 1 m/s 764 mmHg 92%
    22:00 +15°C° 0 mm 2 m/s 764 mmHg 92%
    23:00 +15°C° 0 mm 2 m/s 764 mmHg 92%

    Poimâine, 22 Octombrie, Duminică

    Timp Temperatura Precipitaţii Vânt Presiune Umiditate
    00:00 +15°C° 0 mm 2 m/s 763 mmHg 92%
    01:00 +14°C° 0 mm 2 m/s 763 mmHg 92%
    02:00 +14°C° 0 mm 2 m/s 763 mmHg 92%
    03:00 +15°C° 0 mm 2 m/s 763 mmHg 92%
    04:00 +15°C° 0 mm 2 m/s 762 mmHg 92%
    05:00 +15°C° 0 mm 2 m/s 762 mmHg 92%
    06:00 +14°C° 0 mm 3 m/s 762 mmHg 91%
    07:00 +14°C° 0 mm 3 m/s 761 mmHg 91%
    08:00 +16°C° 0,5 mm 3 m/s 761 mmHg 88%
    09:00 +17°C° 0,5 mm 3 m/s 761 mmHg 86%
    10:00 +18°C° 0,5 mm 3 m/s 761 mmHg 83%
    11:00 +18°C° 1,9 mm 3 m/s 760 mmHg 86%
    12:00 +17°C° 1,9 mm 3 m/s 759 mmHg 89%
    13:00 +17°C° 1,9 mm 4 m/s 759 mmHg 91%
    14:00 +17°C° 1,9 mm 4 m/s 759 mmHg 91%
    15:00 +17°C° 1,9 mm 4 m/s 758 mmHg 90%
    16:00 +17°C° 1,9 mm 4 m/s 758 mmHg 90%
    17:00 +17°C° 1,6 mm 4 m/s 758 mmHg 89%
    18:00 +15°C° 1,6 mm 5 m/s 758 mmHg 89%
    19:00 +14°C° 1,6 mm 6 m/s 759 mmHg 88%
    20:00 +12°C° 0,7 mm 7 m/s 759 mmHg 86%
    21:00 +12°C° 0,7 mm 8 m/s 760 mmHg 84%
    22:00 +11°C° 0,7 mm 8 m/s 760 mmHg 82%
    23:00 +11°C° 1 mm 7 m/s 760 mmHg 80%

    23 Octombrie, Luni

    Timp Temperatura Precipitaţii Vânt Presiune Umiditate
    00:00 +11°C° 1 mm 7 m/s 760 mmHg 78%
    01:00 +11°C° 1 mm 6 m/s 760 mmHg 76%
    02:00 +10°C° 0,6 mm 5 m/s 760 mmHg 79%
    03:00 +11°C° 0,6 mm 4 m/s 760 mmHg 81%
    04:00 +11°C° 0,6 mm 3 m/s 760 mmHg 84%
    05:00 +10°C° 0,1 mm 3 m/s 760 mmHg 85%
    06:00 +10°C° 0,1 mm 3 m/s 761 mmHg 85%
    07:00 +10°C° 0,1 mm 3 m/s 761 mmHg 85%
    08:00 +11°C° 0 mm 3 m/s 761 mmHg 79%
    09:00 +12°C° 0 mm 3 m/s 761 mmHg 73%
    10:00 +14°C° 0 mm 3 m/s 761 mmHg 67%
    11:00 +16°C° 0 mm 3 m/s 761 mmHg 63%
    12:00 +16°C° 0 mm 3 m/s 761 mmHg 59%
    13:00 +17°C° 0 mm 2 m/s 760 mmHg 54%
    14:00 +17°C° 0 mm 2 m/s 761 mmHg 58%
    15:00 +16°C° 0 mm 2 m/s 761 mmHg 61%
    16:00 +16°C° 0 mm 1 m/s 761 mmHg 65%
    17:00 +15°C° 0 mm 1 m/s 761 mmHg 68%
    18:00 +13°C° 0 mm 1 m/s 762 mmHg 72%
    19:00 +12°C° 0 mm 1 m/s 762 mmHg 76%
    20:00 +12°C° 0 mm 2 m/s 763 mmHg 75%
    21:00 +10°C° 0 mm 2 m/s 763 mmHg 73%
    22:00 +10°C° 0 mm 2 m/s 763 mmHg 71%
    23:00 +10°C° 0 mm 2 m/s 763 mmHg 70%

    24 Octombrie, Marţi

    Timp Temperatura Precipitaţii Vânt Presiune Umiditate
    00:00 +10°C° 0 mm 2 m/s 763 mmHg 68%
    01:00 +9°C° 0 mm 2 m/s 764 mmHg 67%
    02:00 +9°C° 0 mm 2 m/s 764 mmHg 67%
    03:00 +9°C° 0 mm 3 m/s 764 mmHg 67%
    04:00 +9°C° 0 mm 3 m/s 764 mmHg 67%
    05:00 +9°C° 0 mm 3 m/s 764 mmHg 67%
    06:00 +9°C° 0 mm 3 m/s 765 mmHg 67%
    07:00 +9°C° 0 mm 3 m/s 765 mmHg 67%
    08:00 +11°C° 0 mm 3 m/s 765 mmHg 61%
    09:00 +13°C° 0 mm 3 m/s 765 mmHg 55%
    10:00 +17°C° 0 mm 3 m/s 765 mmHg 49%
    11:00 +18°C° 0 mm 3 m/s 765 mmHg 47%
    12:00 +18°C° 0 mm 3 m/s 765 mmHg 45%
    13:00 +19°C° 0 mm 3 m/s 765 mmHg 44%
    14:00 +19°C° 0 mm 3 m/s 765 mmHg 48%
    15:00 +18°C° 0 mm 2 m/s 765 mmHg 53%
    16:00 +17°C° 0 mm 2 m/s 765 mmHg 58%
    17:00 +16°C° 0 mm 2 m/s 766 mmHg 61%
    18:00 +14°C° 0 mm 2 m/s 766 mmHg 65%
    19:00 +13°C° 0 mm 2 m/s 767 mmHg 68%
    20:00 +11°C° 0 mm 3 m/s 768 mmHg 69%
    21:00 +11°C° 0 mm 3 m/s 768 mmHg 69%
    22:00 +11°C° 0 mm 3 m/s 768 mmHg 70%
    23:00 +10°C° 0 mm 3 m/s 769 mmHg 71%

    25 Octombrie, Miercuri

    Timp Temperatura Precipitaţii Vânt Presiune Umiditate
    00:00 +10°C° 0 mm 3 m/s 769 mmHg 72%
    01:00 +10°C° 0 mm 2 m/s 769 mmHg 72%
    02:00 +10°C° 0 mm 2 m/s 769 mmHg 74%
    03:00 +9°C° 0 mm 2 m/s 769 mmHg 75%
    04:00 +9°C° 0 mm 2 m/s 769 mmHg 76%
    05:00 +9°C° 0 mm 2 m/s 769 mmHg 77%
    06:00 +9°C° 0 mm 2 m/s 769 mmHg 78%
    07:00 +9°C° 0 mm 3 m/s 769 mmHg 79%
    08:00 +12°C° 0 mm 2 m/s 769 mmHg 72%
    09:00 +14°C° 0 mm 2 m/s 769 mmHg 65%
    10:00 +16°C° 0 mm 2 m/s 769 mmHg 58%
    11:00 +17°C° 0 mm 2 m/s 769 mmHg 56%
    12:00 +18°C° 0 mm 2 m/s 769 mmHg 54%
    13:00 +19°C° 0 mm 2 m/s 769 mmHg 52%
    14:00 +18°C° 0 mm 2 m/s 768 mmHg 57%
    15:00 +18°C° 0 mm 2 m/s 768 mmHg 61%
    16:00 +17°C° 0 mm 2 m/s 768 mmHg 65%
    17:00 +16°C° 0 mm 2 m/s 769 mmHg 70%
    18:00 +15°C° 0 mm 2 m/s 769 mmHg 74%
    19:00 +13°C° 0 mm 2 m/s 770 mmHg 79%
    20:00 +13°C° 0 mm 2 m/s 770 mmHg 80%
    21:00 +13°C° 0 mm 2 m/s 770 mmHg 81%
    22:00 +13°C° 0 mm 2 m/s 770 mmHg 82%
    23:00 +12°C° 0 mm 2 m/s 770 mmHg 82%
    Arată mai mult